This is the latest recevied weather packets stored in our database for station/object K6GMW. If no packets are shown the sender has not sent any weather packets the latest 10 day(s).
| Time | Temp. | Humidity | Pressure | Rain* | Wind** | Luminosity | Snow |
|---|---|---|---|---|---|---|---|
| 1777421205 | 25° C | 89% | 1011.5 hPa | 0 mm | - | 10 W/m² | - |
| 1777420901 | 25.56° C | 89% | 1010.9 hPa | 0 mm | - | 13 W/m² | - |
| 1777420598 | 25° C | 88% | 1011.4 hPa | 0 mm | - | 11 W/m² | - |
| 1777420294 | 25° C | 89% | 1011.3 hPa | 0 mm | - | 13 W/m² | - |
| 1777419989 | 25.56° C | 89% | 1011.4 hPa | 0 mm | - | 13 W/m² | - |
| 1777419686 | 25.56° C | 90% | 1011.2 hPa | 0 mm | - | 15 W/m² | - |
| 1777419384 | 25.56° C | 90% | 1011.7 hPa | 0 mm | - | 13 W/m² | - |
| 1777419084 | 25.56° C | 89% | 1011.8 hPa | 0 mm | - | 14 W/m² | - |
| 1777418782 | 25.56° C | 88% | 1012.2 hPa | 0 mm | - | 14 W/m² | - |
| 1777418480 | 25.56° C | 89% | 1012.5 hPa | 0 mm | - | 15 W/m² | - |
| 1777418176 | 25.56° C | 89% | 1012.6 hPa | 0 mm | - | 18 W/m² | - |
| 1777417872 | 25.56° C | 90% | 1012.6 hPa | 0 mm | - | 13 W/m² | - |
| 1777417569 | 25.56° C | 91% | 1012.6 hPa | 0 mm | - | 19 W/m² | - |
| 1777417264 | 25.56° C | 90% | 1012.2 hPa | 0 mm | - | 28 W/m² | - |
| 1777416961 | 26.11° C | 88% | 1011.9 hPa | 0 mm | - | 27 W/m² | - |
| 1777416660 | 26.11° C | 88% | 1011.6 hPa | 0 mm | - | 35 W/m² | - |
| 1777416357 | 26.11° C | 88% | 1011.7 hPa | 0 mm | - | 41 W/m² | - |
| 1777416056 | 26.11° C | 87% | 1011.5 hPa | 0 mm | - | 53 W/m² | - |
| 1777415752 | 26.11° C | 86% | 1011.6 hPa | 0 mm | - | 46 W/m² | - |
| 1777415449 | 26.11° C | 87% | 1011.5 hPa | 0 mm | - | 41 W/m² | - |
| 1777415144 | 26.11° C | 86% | 1011.6 hPa | 0 mm | - | 44 W/m² | - |
| 1777414839 | 26.11° C | 85% | 1011.6 hPa | 0 mm | - | 32 W/m² | - |
| 1777414533 | 26.11° C | 84% | 1011.7 hPa | 0 mm | - | 36 W/m² | - |
| 1777414233 | 26.11° C | 84% | 1011.6 hPa | 0 mm | - | 34 W/m² | - |
| 1777413928 | 26.11° C | 85% | 1011.6 hPa | 0 mm | - | 23 W/m² | - |
* Rain latest hour (hover to see other rain measurements)
** Current wind speed in m/s (hover to see current wind gust speed)